Regional Weather Roundup
Issued by NWS Burlington, VT

Home | Current Version | Previous Version | Text Only | Print | Product List | Glossary On
Versions: 1 2 3 4 5 6 7 8 9 10 11 12 13 14 15 16 17 18 19 20 21 22 23 24 25 26 27 28 29 30 31 32 33 34 35 36 37 38 39 40 41 42 43 44 45 46 47 48 49 50
000
ASUS41 KBTV 260030
RWRBTV
VERMONT REGIONAL WEATHER ROUNDUP
NATIONAL WEATHER SERVICE BURLINGTON VT
700 PM EST TUE NOV 25 2014

NOTE: "FAIR" INDICATES FEW OR NO CLOUDS BELOW 12,000 FEET WITH NO
SIGNIFICANT WEATHER AND/OR OBSTRUCTIONS TO VISIBILITY.

* THESE REPORTS ARE NOT UNDER NWS QUALITY CONTROL AND/OR DO NOT
  REPORT WEATHER SUCH AS PRECIPITATION AND FOG.

VTZ001>019-260100-
_____VERMONT_____


CITY           SKY/WX    TMP DP  RH WIND       PRES   REMARKS
BURLINGTON     CLOUDY    44  25  47 S3        29.97R
6HR MIN TEMP:  41; 6HR MAX TEMP:  50;

MONTPELIER     PTCLDY    40  22  48 S5        29.99R
6HR MIN TEMP:  38; 6HR MAX TEMP:  47;

ST. JOHNSBURY*   N/A     37  27  67 MISG      29.95R
6HR MIN TEMP:  37; 6HR MAX TEMP:  51;

LYNDONVILLE*   FAIR      39  22  50 SE5       29.96S
6HR MIN TEMP:  39; 6HR MAX TEMP:  49;

MIDDLEBURY*    FAIR      37  30  78 CALM      29.99R
6HR MIN TEMP:  36; 6HR MAX TEMP:  50;

RUTLAND*       CLEAR     37  25  60 E5        29.98R
6HR MIN TEMP:  37; 6HR MAX TEMP:  48;

SPRINGFIELD    PTCLDY    34  28  79 CALM      29.99R
6HR MIN TEMP:  34; 6HR MAX TEMP:  52;

HIGHGATE*      CLOUDY    44  28  53 SW9       29.96R
6HR MIN TEMP:  44; 6HR MAX TEMP:  46;

NEWPORT*       CLOUDY    39  25  57 S6        29.95R
6HR MIN TEMP:  37; 6HR MAX TEMP:  46;

BENNINGTON     CLEAR     34  25  69 S5        30.00R
6HR MIN TEMP:  33; 6HR MAX TEMP:  51;

GALLUP MILLS*    N/A     32 N/A N/A MISG        N/A
UNION VILLAGE*   N/A     32 N/A N/A MISG        N/A

_____LAKE CHAMPLAIN_____


CITY           SKY/WX    TMP DP  RH WIND       PRES   REMARKS
BURTON ISLAND*   N/A     46  32  57 SW16        N/A
COLCHESTER RF*   N/A     46  28  49 W16         N/A
DIAMOND ISL*     N/A     45  30  57 S8          N/A

$$

NYZ007-026>031-035-052-083-260100-
_____NORTHERN NEW YORK_____


CITY           SKY/WX    TMP DP  RH WIND       PRES   REMARKS
SARANAC LAKE   FLURRIES  34  30  85 W10G18    29.93R
6HR MIN TEMP:  34; 6HR MAX TEMP:  39; 6HR PCP: TRACE;

MASSENA        CLOUDY    40  28  62 SW20G35   29.97R
6HR MIN TEMP:  40; 6HR MAX TEMP:  45; 6HR PCP: TRACE;

OGDENSBURG*    MOCLDY    39  30  70 W13G24    30.00R
POTSDAM*       CLOUDY    39  34  81 W17G25    29.99R
STARK FALLS*     N/A     34 N/A N/A SW14        N/A
WATERTOWN      LGT RAIN  38  31  76 W21G30    30.04R
6HR MIN TEMP:  38; 6HR MAX TEMP:  45; 6HR PCP: TRACE;

FT DRUM        DRIZZLE   36  32  87 W18G26    30.02R
6HR MIN TEMP:  36; 6HR MAX TEMP:  42; 6HR PCP:  0.01;

ALBANY         PTCLDY    38  25  59 SW7       30.02R
6HR MIN TEMP:  37; 6HR MAX TEMP:  54;

GLENS FALLS    CLEAR     31  26  82 CALM      30.00R
6HR MIN TEMP:  31; 6HR MAX TEMP:  50;


$$
NHZ002-005-011-260100-
_____NEW HAMPSHIRE_____


CITY           SKY/WX    TMP DP  RH WIND       PRES   REMARKS
LEBANON        CLEAR     35  27  72 CALM      29.97R
6HR MIN TEMP:  34; 6HR MAX TEMP:  53;

KEENE          PTCLDY    37  28  70 CALM      30.00R
6HR MIN TEMP:  37; 6HR MAX TEMP:  55;

MT WASHINGTON  FOG       18  18 100 W61         N/A  VSB 1/16WCI  -8
6HR MIN TEMP:  17; 6HR MAX TEMP:  25;

PLYMOUTH       FAIR      35  32  90 CALM      29.97R
6HR MIN TEMP:  37; 6HR MAX TEMP:  54;

WHITEFIELD     CLEAR     33  26  75 CALM      29.95R
6HR MIN TEMP:  33; 6HR MAX TEMP:  51;


$$

_____REGIONAL QUEBEC LOCATIONS_____


CITY           SKY/WX    TMP DP  RH WIND       PRES   REMARKS
MONTREAL       CLOUDY    41  32  70 SW22G29   29.93R
QUEBEC CITY    CLOUDY    39  34  81 SW20G26   29.82R
SHERBROOKE     CLOUDY    41  27  56 SW14G25   29.89R

_____REGIONAL ONTARIO LOCATIONS_____


CITY           SKY/WX    TMP DP  RH WIND       PRES   REMARKS
OTTAWA         CLOUDY    37  25  60 SW14G24   29.94R

______KEY______
VSB  - VISIBILITY IN MILES
WCI  - WIND CHILL INDEX
HX   - HEAT INDEX
$$



USA.gov is the U.S. government's official web portal to all federal, state and local government web resources and services.